TimeEST,TemperatureF,Dew PointF,Humidity,Sea Level PressureIn,VisibilityMPH,Wind Direction,Wind SpeedMPH,Gust SpeedMPH,PrecipitationIn,Events,Conditions,WindDirDegrees,DateUTC
12:56 AM,7.0,5.0,92,29.65,-9999.0,NNW,9.2,-,N/A,,Unknown,330,2013-02-04 05:56:00
1:56 AM,8.1,5.0,87,29.63,-9999.0,Calm,Calm,-,N/A,,Unknown,0,2013-02-04 06:56:00
2:56 AM,7.0,3.9,87,29.62,-9999.0,NW,8.1,-,N/A,,Unknown,320,2013-02-04 07:56:00
3:56 AM,6.1,3.9,91,29.60,-9999.0,NW,9.2,-,N/A,,Unknown,320,2013-02-04 08:56:00
5:56 AM,7.0,3.9,87,29.58,-9999.0,NW,8.1,16.1,N/A,,Unknown,320,2013-02-04 10:56:00
6:56 AM,6.1,3.9,91,29.57,-9999.0,Variable,4.6,-,N/A,,Unknown,0,2013-02-04 11:56:00
7:56 AM,8.1,5.0,87,29.57,-9999.0,NW,9.2,17.3,N/A,,Unknown,310,2013-02-04 12:56:00
8:56 AM,10.0,6.1,84,29.57,-9999.0,NW,9.2,19.6,N/A,,Unknown,320,2013-02-04 13:56:00
9:56 AM,12.0,8.1,84,29.57,-9999.0,NW,10.4,18.4,N/A,,Unknown,320,2013-02-04 14:56:00
10:56 AM,14.0,7.0,74,29.55,-9999.0,WNW,9.2,20.7,N/A,,Unknown,300,2013-02-04 15:56:00
11:56 AM,16.0,6.1,65,29.53,-9999.0,WNW,8.1,23.0,N/A,,Unknown,300,2013-02-04 16:56:00
12:56 PM,16.0,1.0,52,29.52,-9999.0,WNW,9.2,24.2,N/A,,Unknown,300,2013-02-04 17:56:00
1:56 PM,16.0,1.9,54,29.53,-9999.0,NW,12.7,23.0,N/A,,Unknown,310,2013-02-04 18:56:00
2:56 PM,15.1,-0.0,51,29.55,-9999.0,WNW,10.4,18.4,N/A,,Unknown,290,2013-02-04 19:56:00
3:56 PM,15.1,3.0,59,29.56,-9999.0,Variable,5.8,-,N/A,,Unknown,0,2013-02-04 20:56:00
4:56 PM,12.9,1.0,59,29.58,-9999.0,Variable,5.8,-,N/A,,Unknown,0,2013-02-04 21:56:00
5:56 PM,10.9,-0.9,59,29.60,-9999.0,Variable,3.5,-,N/A,,Unknown,0,2013-02-04 22:56:00
6:56 PM,10.0,-0.9,61,29.62,-9999.0,Variable,4.6,20.7,N/A,,Unknown,0,2013-02-04 23:56:00
7:56 PM,7.0,-5.1,58,29.65,-9999.0,WNW,10.4,21.9,N/A,,Unknown,290,2013-02-05 00:56:00
8:56 PM,6.1,-5.1,60,29.66,-9999.0,WNW,8.1,23.0,N/A,,Unknown,290,2013-02-05 01:56:00
9:56 PM,3.9,-7.1,60,29.68,-9999.0,Variable,4.6,-,N/A,,Unknown,0,2013-02-05 02:56:00
10:56 PM,1.9,-9.9,58,29.70,-9999.0,Variable,5.8,-,N/A,,Unknown,0,2013-02-05 03:56:00
11:56 PM,1.0,-9.9,60,29.73,-9999.0,Variable,6.9,-,N/A,,Unknown,0,2013-02-05 04:56:00